Terminal Aerodrome Forecast
Issued by NWS Upton, NY

Home | Current Version | Previous Version | Text Only | Print | Product List | Glossary On
Versions: 1 2 3 4 5 6 7 8 9 10 11 12 13 14 15 16 17 18 19 20 21 22 23 24 25 26 27 28
000
FTUS41 KOKX 250806 AAA
TAFBDR
TAF AMD
KBDR 250806Z 2508/2606 07014KT 6SM -RA BR BKN010 OVC030
     FM251200 06015G22KT 4SM -RA BR BKN007 OVC010
     FM251600 06019G25KT 1SM RA BR OVC006
     FM260000 06014KT 1SM -RA OVC004=

USA.gov is the U.S. government's official web portal to all federal, state and local government web resources and services.